This is the latest recevied weather packets stored in our database for station/object VE6HFD-WX. If no packets are shown the sender has not sent any weather packets the latest 10 day(s).
| Time | Temp. | Humidity | Pressure | Rain* | Wind** | Luminosity | Snow |
|---|---|---|---|---|---|---|---|
| 1777612508 | 7.22° C | 63% | 1013.7 hPa | 0 mm | - | - | - |
| 1777612179 | 7.22° C | 63% | 1013.7 hPa | 0 mm | - | - | - |
| 1777611849 | 7.78° C | 64% | 1013.8 hPa | 0 mm | - | - | - |
| 1777611519 | 8.33° C | 63% | 1013.9 hPa | 0 mm | - | - | - |
| 1777611219 | 8.33° C | 61% | 1013.8 hPa | 0 mm | - | - | - |
| 1777610919 | 8.89° C | 62% | 1013.8 hPa | 0 mm | - | - | - |
| 1777610619 | 8.89° C | 62% | 1013.8 hPa | 0 mm | - | - | - |
| 1777610289 | 8.89° C | 62% | 1013.9 hPa | 0 mm | - | - | - |
| 1777609989 | 9.44° C | 61% | 1013.9 hPa | 0 mm | - | - | - |
| 1777609659 | 9.44° C | 59% | 1014 hPa | 0 mm | - | - | - |
| 1777609329 | 9.44° C | 62% | 1014 hPa | 0 mm | - | - | - |
| 1777609029 | 9.44° C | 61% | 1014 hPa | 0 mm | - | - | - |
| 1777608699 | 9.44° C | 60% | 1014.1 hPa | 0 mm | - | - | - |
| 1777608399 | 10° C | 59% | 1014 hPa | 0 mm | - | - | - |
| 1777608099 | 10° C | 59% | 1014.1 hPa | 0 mm | - | - | - |
| 1777607769 | 10.56° C | 58% | 1014.1 hPa | 0 mm | - | - | - |
| 1777607439 | 11.11° C | 53% | 1014.1 hPa | 0 mm | - | - | - |
| 1777607139 | 11.67° C | 50% | 1014.1 hPa | 0 mm | - | - | - |
| 1777606809 | 12.22° C | 49% | 1014 hPa | 0 mm | - | - | - |
| 1777606509 | 12.22° C | 49% | 1014 hPa | 0 mm | - | - | - |
| 1777606179 | 12.22° C | 48% | 1014 hPa | 0 mm | - | - | - |
| 1777605879 | 12.22° C | 48% | 1014 hPa | 0 mm | - | - | - |
| 1777605549 | 12.78° C | 48% | 1014 hPa | 0 mm | - | - | - |
| 1777605249 | 12.78° C | 47% | 1014 hPa | 0 mm | - | - | - |
| 1777604919 | 12.78° C | 48% | 1014 hPa | 0 mm | - | - | - |
* Rain latest hour (hover to see other rain measurements)
** Current wind speed in m/s (hover to see current wind gust speed)